| time (UTC) | temp C | wind direction | speed KPH | gust KPH | rain 1hr cm | rain 24hr cm | rain mn cm | humidity % | barometer mb |
| 20260505125032 | 18 | 280 | 8.0 | 19.3 | 0.00 | 0.00 | 0.00 | 59 | 1015.5 |
| 20260505124544 | 18 | 241 | 8.0 | 17.7 | 0.00 | 0.00 | 0.00 | 59 | 1015.5 |
| 20260505124032 | 18 | 262 | 8.0 | 16.1 | 0.00 | 0.00 | 0.00 | 59 | 1015.5 |
| 20260505123531 | 18 | 219 | 4.8 | 17.7 | 0.00 | 0.00 | 0.00 | 62 | 1015.5 |
| 20260505123050 | 18 | 244 | 8.0 | 17.7 | 0.00 | 0.00 | 0.00 | 62 | 1015.5 |
| 20260505122532 | 18 | 222 | 6.4 | 14.5 | 0.00 | 0.00 | 0.00 | 62 | 1015.4 |
| 20260505122033 | 18 | 186 | 6.4 | 19.3 | 0.00 | 0.00 | 0.00 | 62 | 1015.4 |
| 20260505121542 | 17 | 205 | 9.7 | 19.3 | 0.00 | 0.00 | 0.00 | 63 | 1015.3 |
| 20260505121030 | 17 | 267 | 6.4 | 16.1 | 0.00 | 0.00 | 0.00 | 62 | 1015.3 |
| 20260505120533 | 17 | 242 | 6.4 | 14.5 | 0.00 | 0.00 | 0.00 | 64 | 1015.3 |
| 20260505120048 | 17 | 230 | 4.8 | 14.5 | 0.00 | 0.00 | 0.00 | 64 | 1015.3 |
| 20260505115531 | 17 | 221 | 4.8 | 14.5 | 0.00 | 0.00 | 0.00 | 65 | 1015.3 |
| 20260505115032 | 17 | 222 | 6.4 | 12.9 | 0.00 | 0.00 | 0.00 | 65 | 1015.2 |
| 20260505114544 | 17 | 244 | 3.2 | 12.9 | 0.00 | 0.00 | 0.00 | 65 | 1015.2 |
| 20260505114032 | 16 | 309 | 4.8 | 12.9 | 0.00 | 0.00 | 0.00 | 66 | 1015.1 |
| 20260505113531 | 16 | 221 | 3.2 | 8.0 | 0.00 | 0.00 | 0.00 | 66 | 1015.2 |
| 20260505113041 | 16 | 236 | 1.6 | 8.0 | 0.00 | 0.00 | 0.00 | 65 | 1015.2 |
| 20260505112530 | 16 | 213 | 4.8 | 8.0 | 0.00 | 0.00 | 0.00 | 66 | 1015.1 |
| 20260505112032 | 16 | 240 | 3.2 | 8.0 | 0.00 | 0.00 | 0.00 | 67 | 1015.2 |
| 20260505111541 | 16 | 218 | 4.8 | 8.0 | 0.00 | 0.00 | 0.00 | 67 | 1015.3 |
| 20260505111032 | 16 | 192 | 3.2 | 11.3 | 0.00 | 0.00 | 0.00 | 68 | 1015.2 |
| 20260505110533 | 16 | 167 | 4.8 | 11.3 | 0.00 | 0.00 | 0.00 | 68 | 1015.1 |
| 20260505102032 | 16 | 231 | 4.8 | 14.5 | 0.00 | 0.00 | 0.00 | 66 | 1014.5 |
| 20260505101553 | 16 | 247 | 6.4 | 14.5 | 0.00 | 0.00 | 0.00 | 66 | 1014.5 |
| 20260505101032 | 16 | 223 | 6.4 | 14.5 | 0.00 | 0.00 | 0.00 | 65 | 1014.4 |
| 20260505100531 | 16 | 237 | 6.4 | 17.7 | 0.00 | 0.00 | 0.00 | 65 | 1014.3 |
| 20260505100043 | 16 | 230 | 8.0 | 19.3 | 0.00 | 0.00 | 0.00 | 65 | 1014.3 |
| 20260505095531 | 16 | 213 | 8.0 | 19.3 | 0.00 | 0.00 | 0.00 | 65 | 1014.3 |
| 20260505095036 | 16 | 244 | 8.0 | 17.7 | 0.00 | 0.00 | 0.00 | 65 | 1014.1 |
| 20260505094542 | 16 | 232 | 9.7 | 17.7 | 0.00 | 0.00 | 0.00 | 65 | 1014.2 |
| 20260505094032 | 16 | 229 | 8.0 | 17.7 | 0.00 | 0.00 | 0.00 | 66 | 1014.1 |
| 20260505093532 | 16 | 219 | 8.0 | 17.7 | 0.00 | 0.00 | 0.00 | 65 | 1014.0 |
| 20260505093052 | 16 | 236 | 6.4 | 16.1 | 0.00 | 0.00 | 0.00 | 64 | 1014.0 |
| 20260505092532 | 16 | 248 | 9.7 | 16.1 | 0.00 | 0.00 | 0.00 | 63 | 1013.9 |
| 20260505092032 | 17 | 249 | 6.4 | 16.1 | 0.00 | 0.00 | 0.00 | 63 | 1013.9 |
| 20260505091553 | 17 | 215 | 6.4 | 14.5 | 0.00 | 0.00 | 0.00 | 63 | 1013.9 |
| 20260505091031 | 16 | 250 | 6.4 | 14.5 | 0.00 | 0.00 | 0.00 | 63 | 1013.8 |
| 20260505090531 | 16 | 221 | 4.8 | 14.5 | 0.00 | 0.00 | 0.00 | 63 | 1013.8 |
| 20260505090042 | 17 | 194 | 4.8 | 14.5 | 0.00 | 0.00 | 0.00 | 63 | 1013.8 |
| 20260505085532 | 17 | 185 | 4.8 | 16.1 | 0.00 | 0.00 | 0.00 | 62 | 1013.8 |
| 20260505085035 | 17 | 232 | 6.4 | 16.1 | 0.00 | 0.00 | 0.00 | 62 | 1013.7 |
| 20260505084543 | 17 | 163 | 4.8 | 14.5 | 0.00 | 0.00 | 0.00 | 62 | 1013.7 |
| 20260505084033 | 17 | 240 | 6.4 | 16.1 | 0.00 | 0.00 | 0.00 | 63 | 1013.7 |
| 20260505083532 | 17 | 230 | 4.8 | 16.1 | 0.00 | 0.00 | 0.00 | 62 | 1013.6 |
| 20260505083041 | 17 | 226 | 6.4 | 19.3 | 0.00 | 0.00 | 0.00 | 63 | 1013.6 |
| 20260505082533 | 17 | 230 | 9.7 | 19.3 | 0.00 | 0.00 | 0.00 | 64 | 1013.5 |
| 20260505082032 | 17 | 192 | 6.4 | 16.1 | 0.00 | 0.00 | 0.00 | 63 | 1013.4 |
| 20260505081544 | 17 | 223 | 8.0 | 19.3 | 0.00 | 0.00 | 0.00 | 63 | 1013.5 |
| 20260505081033 | 17 | 223 | 8.0 | 19.3 | 0.00 | 0.00 | 0.00 | 62 | 1013.6 |
| 20260505080532 | 17 | 261 | 6.4 | 17.7 | 0.00 | 0.00 | 0.00 | 62 | 1013.5 |
| 20260505080047 | 17 | 242 | 6.4 | 17.7 | 0.00 | 0.00 | 0.00 | 62 | 1013.5 |
| 20260505075532 | 17 | 211 | 8.0 | 17.7 | 0.00 | 0.00 | 0.00 | 62 | 1013.5 |
| 20260505075031 | 17 | 193 | 8.0 | 17.7 | 0.00 | 0.00 | 0.00 | 62 | 1013.5 |
| 20260505074542 | 17 | 150 | 6.4 | 19.3 | 0.00 | 0.00 | 0.00 | 61 | 1013.5 |
| 20260505074032 | 17 | 226 | 9.7 | 20.9 | 0.00 | 0.00 | 0.00 | 62 | 1013.5 |
| 20260505073531 | 17 | 229 | 8.0 | 22.5 | 0.00 | 0.00 | 0.00 | 61 | 1013.6 |
| 20260505073055 | 17 | 212 | 9.7 | 22.5 | 0.00 | 0.00 | 0.00 | 61 | 1013.5 |
| 20260505072532 | 17 | 167 | 9.7 | 19.3 | 0.00 | 0.00 | 0.00 | 61 | 1013.4 |
| 20260505072034 | 17 | 245 | 9.7 | 17.7 | 0.00 | 0.00 | 0.00 | 60 | 1013.4 |
| 20260505071556 | 17 | 238 | 8.0 | 20.9 | 0.00 | 0.00 | 0.00 | 60 | 1013.3 |
| 20260505071033 | 17 | 225 | 8.0 | 20.9 | 0.00 | 0.00 | 0.00 | 60 | 1013.4 |
| 20260505070532 | 17 | 262 | 9.7 | 24.1 | 0.00 | 0.00 | 0.00 | 61 | 1013.3 |
| 20260505070045 | 17 | 217 | 8.0 | 24.1 | 0.00 | 0.00 | 0.00 | 60 | 1013.2 |
| 20260505065531 | 17 | 261 | 9.7 | 22.5 | 0.00 | 0.00 | 0.00 | 60 | 1013.2 |
| 20260505065032 | 18 | 259 | 8.0 | 22.5 | 0.00 | 0.00 | 0.00 | 60 | 1013.2 |
| 20260505064543 | 17 | 109 | 11.3 | 22.5 | 0.00 | 0.00 | 0.00 | 59 | 1013.3 |
| 20260505064033 | 18 | 217 | 11.3 | 22.5 | 0.00 | 0.00 | 0.00 | 59 | 1013.3 |
| 20260505063532 | 18 | 233 | 8.0 | 22.5 | 0.00 | 0.00 | 0.00 | 59 | 1013.3 |
| 20260505063038 | 17 | 217 | 9.7 | 22.5 | 0.00 | 0.00 | 0.00 | 59 | 1013.3 |
| 20260505062532 | 17 | 265 | 9.7 | 22.5 | 0.00 | 0.00 | 0.00 | 59 | 1013.4 |
| 20260505062032 | 17 | 190 | 9.7 | 22.5 | 0.00 | 0.00 | 0.00 | 59 | 1013.3 |
| 20260505061544 | 18 | 252 | 9.7 | 19.3 | 0.00 | 0.00 | 0.00 | 58 | 1013.4 |
| 20260505061031 | 18 | 217 | 8.0 | 25.7 | 0.00 | 0.00 | 0.00 | 58 | 1013.4 |
| 20260505060533 | 18 | 254 | 8.0 | 25.7 | 0.00 | 0.00 | 0.00 | 58 | 1013.4 |
| 20260505060049 | 18 | 183 | 9.7 | 20.9 | 0.00 | 0.00 | 0.00 | 57 | 1013.5 |
| 20260505055535 | 18 | 260 | 8.0 | 20.9 | 0.00 | 0.00 | 0.00 | 58 | 1013.4 |
| 20260505055032 | 18 | 194 | 8.0 | 20.9 | 0.00 | 0.00 | 0.00 | 58 | 1013.5 |
| 20260505054541 | 18 | 155 | 8.0 | 20.9 | 0.00 | 0.00 | 0.00 | 58 | 1013.6 |
| 20260505054033 | 18 | 212 | 8.0 | 20.9 | 0.00 | 0.00 | 0.00 | 57 | 1013.5 |
| 20260505053529 | 18 | 189 | 9.7 | 20.9 | 0.00 | 0.00 | 0.00 | 57 | 1013.6 |
| 20260505053043 | 18 | 228 | 6.4 | 20.9 | 0.00 | 0.00 | 0.00 | 56 | 1013.7 |
| 20260505052530 | 18 | 227 | 6.4 | 19.3 | 0.00 | 0.00 | 0.00 | 57 | 1013.7 |
| 20260505052034 | 18 | 240 | 6.4 | 19.3 | 0.00 | 0.00 | 0.00 | 57 | 1013.7 |
| 20260505051557 | 18 | 190 | 6.4 | 17.7 | 0.00 | 0.00 | 0.00 | 57 | 1013.6 |
| 20260505051032 | 18 | 225 | 8.0 | 17.7 | 0.00 | 0.00 | 0.00 | 57 | 1013.6 |
| 20260505050532 | 18 | 238 | 4.8 | 27.4 | 0.00 | 0.00 | 0.00 | 57 | 1013.6 |
| 20260505041545 | 18 | 184 | 8.0 | 30.6 | 0.00 | 0.00 | 0.00 | 57 | 1013.6 |
| 20260505041031 | 18 | 169 | 11.3 | 29.0 | 0.00 | 0.00 | 0.00 | 57 | 1013.6 |
| 20260505040530 | 18 | 182 | 9.7 | 19.3 | 0.00 | 0.00 | 0.00 | 57 | 1013.5 |
| 20260505040045 | 19 | 216 | 8.0 | 20.9 | 0.00 | 0.00 | 0.00 | 57 | 1013.6 |
| 20260505035532 | 19 | 165 | 8.0 | 22.5 | 0.00 | 0.00 | 0.00 | 57 | 1013.5 |
| 20260505035031 | 19 | 277 | 11.3 | 29.0 | 0.00 | 0.00 | 0.00 | 58 | 1013.4 |
| 20260505034541 | 19 | 218 | 11.3 | 29.0 | 0.00 | 0.00 | 0.00 | 57 | 1013.4 |
| 20260505034032 | 19 | 196 | 8.0 | 24.1 | 0.00 | 0.00 | 0.00 | 57 | 1013.4 |
| 20260505033532 | 19 | 219 | 9.7 | 20.9 | 0.00 | 0.00 | 0.00 | 57 | 1013.4 |
| 20260505033040 | 19 | 242 | 6.4 | 19.3 | 0.00 | 0.00 | 0.00 | 57 | 1013.4 |
| 20260505032530 | 19 | 180 | 8.0 | 19.3 | 0.00 | 0.00 | 0.00 | 57 | 1013.5 |
| 20260505032030 | 19 | 227 | 8.0 | 20.9 | 0.00 | 0.00 | 0.00 | 57 | 1013.5 |
| 20260505031544 | 19 | 211 | 9.7 | 19.3 | 0.00 | 0.00 | 0.00 | 57 | 1013.4 |
| 20260505031032 | 19 | 247 | 9.7 | 20.9 | 0.00 | 0.00 | 0.00 | 57 | 1013.4 |
| 20260505030532 | 19 | 154 | 6.4 | 20.9 | 0.00 | 0.00 | 0.00 | 57 | 1013.4 |
| 20260505030045 | 20 | 233 | 6.4 | 16.1 | 0.00 | 0.00 | 0.00 | 56 | 1013.3 |
| 20260505025533 | 20 | 163 | 6.4 | 16.1 | 0.00 | 0.00 | 0.00 | 57 | 1013.5 |
| 20260505025059 | 20 | 216 | 6.4 | 14.5 | 0.00 | 0.00 | 0.00 | 57 | 1013.5 |
| 20260505024557 | 20 | 226 | 6.4 | 16.1 | 0.00 | 0.00 | 0.00 | 57 | 1013.4 |
| 20260505024031 | 20 | 198 | 8.0 | 16.1 | 0.00 | 0.00 | 0.00 | 57 | 1013.4 |
| 20260505023536 | 20 | 250 | 6.4 | 16.1 | 0.00 | 0.00 | 0.00 | 57 | 1013.4 |
| 20260505023046 | 20 | 216 | 8.0 | 17.7 | 0.00 | 0.00 | 0.00 | 58 | 1013.3 |
| 20260505022532 | 20 | 226 | 8.0 | 17.7 | 0.00 | 0.00 | 0.00 | 58 | 1013.3 |
| 20260505022031 | 20 | 134 | 6.4 | 14.5 | 0.00 | 0.00 | 0.00 | 58 | 1013.3 |
| 20260505021541 | 20 | 163 | 4.8 | 16.1 | 0.00 | 0.00 | 0.00 | 57 | 1013.3 |
| 20260505021031 | 20 | 155 | 8.0 | 16.1 | 0.00 | 0.00 | 0.00 | 57 | 1013.1 |
| 20260505020532 | 20 | 86 | 6.4 | 19.3 | 0.00 | 0.00 | 0.00 | 57 | 1013.1 |
| 20260505020045 | 20 | 208 | 6.4 | 19.3 | 0.00 | 0.00 | 0.00 | 57 | 1013.1 |
| 20260505015532 | 20 | 219 | 6.4 | 17.7 | 0.00 | 0.00 | 0.00 | 57 | 1013.2 |
| 20260505015035 | 20 | 190 | 6.4 | 16.1 | 0.00 | 0.00 | 0.00 | 57 | 1013.2 |
| 20260505014545 | 20 | 187 | 8.0 | 16.1 | 0.00 | 0.00 | 0.00 | 57 | 1013.1 |
| 20260505014033 | 20 | 250 | 6.4 | 16.1 | 0.00 | 0.00 | 0.00 | 57 | 1013.1 |
| 20260505013531 | 20 | 210 | 8.0 | 19.3 | 0.00 | 0.00 | 0.00 | 57 | 1013.1 |
| 20260505013059 | 20 | 151 | 8.0 | 19.3 | 0.00 | 0.00 | 0.00 | 56 | 1013.1 |
| 20260505012535 | 21 | 138 | 6.4 | 17.7 | 0.00 | 0.00 | 0.00 | 56 | 1012.9 |
| 20260505012032 | 21 | 144 | 6.4 | 24.1 | 0.00 | 0.00 | 0.00 | 56 | 1012.9 |
| 20260505011543 | 21 | 163 | 8.0 | 24.1 | 0.00 | 0.00 | 0.00 | 56 | 1012.9 |
| 20260505011032 | 20 | 160 | 6.4 | 14.5 | 0.00 | 0.00 | 0.00 | 56 | 1012.8 |
| 20260505010530 | 21 | 96 | 4.8 | 16.1 | 0.00 | 0.00 | 0.00 | 56 | 1012.6 |
| 20260505010048 | 21 | 183 | 6.4 | 16.1 | 0.00 | 0.00 | 0.00 | 56 | 1012.5 |
| 20260505005534 | 21 | 207 | 6.4 | 24.1 | 0.00 | 0.00 | 0.00 | 56 | 1012.4 |
| 20260505005032 | 21 | 79 | 6.4 | 24.1 | 0.00 | 0.00 | 0.00 | 56 | 1012.3 |
| 20260505004549 | 21 | 92 | 6.4 | 17.7 | 0.00 | 0.00 | 0.00 | 54 | 1012.2 |
| 20260505004031 | 21 | 211 | 6.4 | 17.7 | 0.00 | 0.00 | 0.00 | 54 | 1012.1 |
| 20260505003533 | 21 | 99 | 6.4 | 16.1 | 0.00 | 0.00 | 0.00 | 55 | 1012.1 |
| 20260505003040 | 21 | 105 | 6.4 | 24.1 | 0.00 | 0.00 | 0.00 | 54 | 1012.1 |
| 20260505002531 | 21 | 213 | 6.4 | 24.1 | 0.00 | 0.00 | 0.00 | 54 | 1012.1 |
| 20260505002031 | 21 | 102 | 8.0 | 16.1 | 0.00 | 0.00 | 0.00 | 53 | 1012.1 |
| 20260505001541 | 21 | 169 | 6.4 | 29.0 | 0.00 | 0.00 | 0.00 | 53 | 1012.0 |
| 20260505001036 | 21 | 151 | 8.0 | 29.0 | 0.00 | 0.00 | 0.00 | 52 | 1011.9 |
| 20260505000535 | 22 | 141 | 4.8 | 16.1 | 0.00 | 0.00 | 0.00 | 52 | 1011.9 |
| 20260505000054 | 22 | 57 | 4.8 | 16.1 | 0.00 | 0.00 | 0.00 | 51 | 1011.8 |
| 20260504235532 | 22 | 219 | 8.0 | 16.1 | 0.00 | 0.00 | 0.00 | 50 | 1011.7 |
| 20260504235032 | 22 | 192 | 6.4 | 17.7 | 0.00 | 0.00 | 0.00 | 49 | 1011.6 |
| 20260504234543 | 22 | 103 | 6.4 | 17.7 | 0.00 | 0.00 | 0.00 | 48 | 1011.5 |
| 20260504234032 | 23 | 70 | 8.0 | 19.3 | 0.00 | 0.00 | 0.00 | 46 | 1011.5 |
| 20260504233532 | 23 | 165 | 6.4 | 19.3 | 0.00 | 0.00 | 0.00 | 41 | 1011.4 |
| 20260504233043 | 24 | 211 | 6.4 | 19.3 | 0.00 | 0.00 | 0.00 | 34 | 1011.3 |
| 20260504232532 | 24 | 226 | 11.3 | 25.7 | 0.00 | 0.00 | 0.00 | 34 | 1011.2 |
| 20260504232031 | 24 | 111 | 11.3 | 25.7 | 0.00 | 0.00 | 0.00 | 34 | 1011.2 |
| 20260504231546 | 24 | 217 | 9.7 | 20.9 | 0.00 | 0.00 | 0.00 | 34 | 1011.1 |
| 20260504231031 | 24 | 258 | 9.7 | 22.5 | 0.00 | 0.00 | 0.00 | 34 | 1011.1 |
| 20260504230532 | 24 | 232 | 11.3 | 22.5 | 0.00 | 0.00 | 0.00 | 34 | 1011.2 |
| 20260504230056 | 25 | 219 | 9.7 | 16.1 | 0.00 | 0.00 | 0.00 | 34 | 1011.1 |
| 20260504225532 | 25 | 232 | 8.0 | 25.7 | 0.00 | 0.00 | 0.00 | 33 | 1011.1 |
| 20260504225031 | 25 | 222 | 8.0 | 25.7 | 0.00 | 0.00 | 0.00 | 33 | 1011.1 |
| 20260504224543 | 25 | 123 | 12.9 | 32.2 | 0.00 | 0.00 | 0.00 | 33 | 1011.1 |
| 20260504224032 | 25 | 200 | 12.9 | 32.2 | 0.00 | 0.00 | 0.00 | 33 | 1011.1 |
| 20260504223532 | 25 | 236 | 11.3 | 25.7 | 0.00 | 0.00 | 0.00 | 32 | 1011.0 |
| 20260504223055 | 25 | 253 | 14.5 | 24.1 | 0.00 | 0.00 | 0.00 | 32 | 1011.1 |
| 20260504222533 | 25 | 129 | 8.0 | 22.5 | 0.00 | 0.00 | 0.00 | 33 | 1011.1 |
| 20260504222031 | 25 | 257 | 9.7 | 25.7 | 0.00 | 0.00 | 0.00 | 33 | 1011.1 |
| 20260504221542 | 25 | 252 | 11.3 | 25.7 | 0.00 | 0.00 | 0.00 | 32 | 1011.1 |
| 20260504221034 | 25 | 203 | 9.7 | 20.9 | 0.00 | 0.00 | 0.00 | 32 | 1011.1 |
| 20260504220532 | 25 | 210 | 11.3 | 24.1 | 0.00 | 0.00 | 0.00 | 33 | 1011.1 |
| 20260504220050 | 25 | 253 | 11.3 | 27.4 | 0.00 | 0.00 | 0.00 | 32 | 1011.1 |
| 20260504215530 | 25 | 242 | 16.1 | 27.4 | 0.00 | 0.00 | 0.00 | 32 | 1011.0 |
| 20260504215034 | 25 | 205 | 11.3 | 24.1 | 0.00 | 0.00 | 0.00 | 32 | 1011.1 |
| 20260504214547 | 25 | 254 | 9.7 | 24.1 | 0.00 | 0.00 | 0.00 | 31 | 1011.1 |
| 20260504214030 | 25 | 193 | 8.0 | 24.1 | 0.00 | 0.00 | 0.00 | 31 | 1011.1 |
| 20260504213533 | 25 | 221 | 12.9 | 24.1 | 0.00 | 0.00 | 0.00 | 32 | 1011.2 |
| 20260504213051 | 25 | 191 | 12.9 | 29.0 | 0.00 | 0.00 | 0.00 | 31 | 1011.3 |
| 20260504212531 | 26 | 242 | 16.1 | 29.0 | 0.00 | 0.00 | 0.00 | 31 | 1011.4 |
| 20260504212034 | 26 | 238 | 9.7 | 25.7 | 0.00 | 0.00 | 0.00 | 31 | 1011.3 |
| 20260504211543 | 25 | 242 | 12.9 | 25.7 | 0.00 | 0.00 | 0.00 | 31 | 1011.3 |
| 20260504211031 | 25 | 260 | 9.7 | 25.7 | 0.00 | 0.00 | 0.00 | 31 | 1011.3 |
| 20260504210531 | 25 | 227 | 14.5 | 25.7 | 0.00 | 0.00 | 0.00 | 31 | 1011.5 |
| 20260504210037 | 25 | 202 | 12.9 | 32.2 | 0.00 | 0.00 | 0.00 | 31 | 1011.4 |
| 20260504205532 | 25 | 258 | 14.5 | 32.2 | 0.00 | 0.00 | 0.00 | 31 | 1011.4 |
| 20260504205033 | 26 | 256 | 16.1 | 32.2 | 0.00 | 0.00 | 0.00 | 29 | 1011.4 |
| 20260504204543 | 26 | 224 | 9.7 | 22.5 | 0.00 | 0.00 | 0.00 | 30 | 1011.5 |
| 20260504204032 | 25 | 237 | 11.3 | 32.2 | 0.00 | 0.00 | 0.00 | 31 | 1011.4 |
| 20260504203532 | 25 | 228 | 16.1 | 32.2 | 0.00 | 0.00 | 0.00 | 30 | 1011.5 |
| 20260504203042 | 25 | 182 | 6.4 | 25.7 | 0.00 | 0.00 | 0.00 | 31 | 1011.5 |
| 20260504202532 | 25 | 222 | 12.9 | 29.0 | 0.00 | 0.00 | 0.00 | 30 | 1011.5 |
| 20260504202031 | 26 | 176 | 17.7 | 29.0 | 0.00 | 0.00 | 0.00 | 29 | 1011.5 |
| 20260504201603 | 26 | 211 | 9.7 | 29.0 | 0.00 | 0.00 | 0.00 | 30 | 1011.6 |
| 20260504201033 | 26 | 213 | 16.1 | 29.0 | 0.00 | 0.00 | 0.00 | 30 | 1011.5 |
| 20260504200531 | 26 | 243 | 8.0 | 25.7 | 0.00 | 0.00 | 0.00 | 30 | 1011.5 |
| 20260504200047 | 26 | 225 | 14.5 | 25.7 | 0.00 | 0.00 | 0.00 | 30 | 1011.6 |
| 20260504195529 | 25 | 251 | 6.4 | 24.1 | 0.00 | 0.00 | 0.00 | 31 | 1011.7 |
| 20260504195031 | 25 | 209 | 8.0 | 29.0 | 0.00 | 0.00 | 0.00 | 31 | 1011.7 |
| 20260504194537 | 25 | 224 | 12.9 | 29.0 | 0.00 | 0.00 | 0.00 | 30 | 1011.8 |
| 20260504194032 | 26 | 252 | 4.8 | 22.5 | 0.00 | 0.00 | 0.00 | 31 | 1011.8 |
| 20260504193534 | 25 | 252 | 9.7 | 32.2 | 0.00 | 0.00 | 0.00 | 31 | 1011.9 |
| 20260504193044 | 25 | 213 | 12.9 | 32.2 | 0.00 | 0.00 | 0.00 | 31 | 1012.1 |
| 20260504192532 | 25 | 242 | 11.3 | 29.0 | 0.00 | 0.00 | 0.00 | 32 | 1012.0 |
| 20260504192032 | 25 | 210 | 9.7 | 24.1 | 0.00 | 0.00 | 0.00 | 32 | 1012.0 |
| 20260504191554 | 25 | 219 | 9.7 | 24.1 | 0.00 | 0.00 | 0.00 | 32 | 1012.0 |
| 20260504191031 | 25 | 222 | 14.5 | 27.4 | 0.00 | 0.00 | 0.00 | 30 | 1012.3 |
| 20260504190534 | 25 | 195 | 8.0 | 27.4 | 0.00 | 0.00 | 0.00 | 31 | 1012.3 |
| 20260504190047 | 25 | 218 | 17.7 | 27.4 | 0.00 | 0.00 | 0.00 | 31 | 1012.4 |
| 20260504185531 | 25 | 238 | 8.0 | 17.7 | 0.00 | 0.00 | 0.00 | 31 | 1012.3 |
| 20260504185031 | 26 | 259 | 11.3 | 27.4 | 0.00 | 0.00 | 0.00 | 31 | 1012.4 |
| 20260504184604 | 25 | 233 | 11.3 | 27.4 | 0.00 | 0.00 | 0.00 | 32 | 1012.6 |
| 20260504184030 | 25 | 202 | 16.1 | 27.4 | 0.00 | 0.00 | 0.00 | 32 | 1012.9 |
| 20260504183529 | 25 | 247 | 12.9 | 25.7 | 0.00 | 0.00 | 0.00 | 32 | 1012.8 |
| 20260504183046 | 25 | 198 | 12.9 | 22.5 | 0.00 | 0.00 | 0.00 | 32 | 1012.9 |
| 20260504182532 | 25 | 234 | 9.7 | 22.5 | 0.00 | 0.00 | 0.00 | 33 | 1013.0 |
| 20260504182031 | 25 | 229 | 9.7 | 22.5 | 0.00 | 0.00 | 0.00 | 33 | 1013.1 |
| 20260504181541 | 24 | 271 | 9.7 | 25.7 | 0.00 | 0.00 | 0.00 | 34 | 1013.2 |
| 20260504181036 | 24 | 226 | 11.3 | 25.7 | 0.00 | 0.00 | 0.00 | 33 | 1013.2 |
| 20260504180532 | 25 | 220 | 11.3 | 24.1 | 0.00 | 0.00 | 0.00 | 33 | 1013.3 |
| 20260504180045 | 25 | 233 | 11.3 | 25.7 | 0.00 | 0.00 | 0.00 | 32 | 1013.2 |
| 20260504175533 | 24 | 230 | 9.7 | 25.7 | 0.00 | 0.00 | 0.00 | 34 | 1013.3 |
| 20260504175032 | 23 | 214 | 16.1 | 27.4 | 0.00 | 0.00 | 0.00 | 35 | 1013.3 |
| 20260504174545 | 23 | 221 | 12.9 | 29.0 | 0.00 | 0.00 | 0.00 | 35 | 1013.3 |
| 20260504174030 | 23 | 226 | 14.5 | 29.0 | 0.00 | 0.00 | 0.00 | 34 | 1013.3 |
| 20260504173532 | 23 | 229 | 14.5 | 27.4 | 0.00 | 0.00 | 0.00 | 33 | 1013.4 |
| 20260504173047 | 24 | 245 | 17.7 | 27.4 | 0.00 | 0.00 | 0.00 | 33 | 1013.4 |
| 20260504172530 | 24 | 223 | 12.9 | 30.6 | 0.00 | 0.00 | 0.00 | 34 | 1013.4 |
| 20260504172031 | 23 | 236 | 14.5 | 30.6 | 0.00 | 0.00 | 0.00 | 35 | 1013.5 |
| 20260504171541 | 24 | 229 | 11.3 | 24.1 | 0.00 | 0.00 | 0.00 | 35 | 1013.6 |
| 20260504171034 | 24 | 227 | 11.3 | 29.0 | 0.00 | 0.00 | 0.00 | 34 | 1013.6 |
| 20260504170533 | 23 | 219 | 12.9 | 29.0 | 0.00 | 0.00 | 0.00 | 33 | 1013.6 |
| 20260504151032 | 20 | 217 | 19.3 | 27.4 | 0.00 | 0.00 | 0.00 | 44 | 1014.6 |
| 20260504150534 | 21 | 243 | 11.3 | 22.5 | 0.00 | 0.00 | 0.00 | 44 | 1014.7 |
| 20260504141029 | 18 | 204 | 8.0 | 19.3 | 0.00 | 0.00 | 0.00 | 53 | 1014.8 |
| 20260504140530 | 18 | 235 | 9.7 | 22.5 | 0.00 | 0.00 | 0.00 | 55 | 1014.9 |